千帆星座-46 (QIANFAN-46)

导读

QIANFAN-46 是中国“千帆星座”计划中的一颗低轨卫星,主要用于提供全球卫星互联网服务。该卫星具备高速数据传输和稳定的通信能力,支持多种应用场景,如远程教育、应急通信和物联网连接。作为星座系统的重要组成部分,QIANFAN-46 与其他卫星协同工作,提升网络覆盖范围和信号稳定性,助力中国在空间信息基础设施领域的建设与发展。

Basic Information
目录编号:
62247
目录名称:
QIANFAN-46
国际标识:
2024-232L
轨道中心:
EARTH
卫星名称:
千帆星座-46
卫星全名:
千帆星座-46 (QIANFAN-46)
卫星状态:
在轨 (已飞行600 天)
发射日期:
2024-12-05 UTC
国别 :
中国 (CN)
星等 :
--
Orbit Information
数据来源 国际轨道数据 AOE轨道数据
星历时间 2026-07-27T22:13:47+0800
12小时前
查看轨道信息
2026-07-26T23:00:00+0800
1天前
查看轨道信息
半长轴 7446.631km 7446.634km
偏心率 0.0012398 0.0012349
轨道倾角 89.008° 89.009°
近地点辐角 262.086° 265.914°
升交点赤经 18.501° 18.597°
平近点角 97.889° 69.265°
近地点 1059.261km 1059.301km
远地点 1077.727km 1077.693km
周期 106.586分钟 106.586分钟
每日圈数 13.510241 13.510232
Detailed Information
卫星平台:
46
覆盖范围:
全球
运营商:
上海垣信卫星科技有限公司
运营商所在国:
中国
使用方式:
暂无
Satellite Introduction
千帆星座,也被称为“G60星链”计划,是中国版“星链”的重要组成部分,旨在打造一个由1.4万多颗低轨宽频多媒体卫星构成的庞大星座。千帆星座计划由上海垣信卫星科技有限公司负责实施,于2023年启动建设。该项目是我国第二个低轨卫星大星座,旨在通过构建庞大的卫星网络,为全球用户提供高质量的通信和宽带互联网服务。
2D Orbit Map
3D Orbit Map
Orbit Altitude Analysis Chart
Orbit Inclination Analysis Chart
Orbit Comprehensive Analysis Chart
View Comprehensive Chart